Portada
METAR-TAF:

METAR-TAF

Aeroports :

Auburn/Lewiston Municipal Airport

Auburn-Lewiston, Maine, Estats Units d'Amèrica

latitud: 44-03N, longitud: 070-17W, altitud: 88 m

Observació

L'informe es va fer fa 23 minuts, a les 01:56 UTC
Vent 14 kt del Nord-Oest amb ràfegues de 24 kt
Temperatura -9°C
Humitat 37%
Pressió 1010 hPa
Visibilitat: 16.1 km
Cel clar

METAR: KLEW 030156Z AUTO 31014G24KT 10SM CLR M09/M21 A2982 RMK AO2 SLPNO T10891206 FZRANO

Hora: 21:19 (02:19 UTC)


TAF: manca

Observacions i pronòstics meteorològics de més de 4000 aeroports (METAR i TAF).

Les estacions disponibles són els punts grocs i vermells al mapa.

Posi el ratolí al punt desitjat per veure el nom de l'estació.

Feu clic per veure les observacions i els pronòstics meteorològics.

Per canviar el mapa: feu clic els botons verds amb una creu de color negre per apropar; al botó verd amb un guió per allunyar la imatge; o en les fletxes verdes per a mapes adjacents.


METAR-TAF: